Location: Cheching
(60.0667°N, 164.2167°W)
Time: 20:03:40
(UTC+00:00)

DX 1 - Pass Details

Date: 30 January 2021
Orbit: 618 x 631 km, 98.5° (Epoch: 26 February)

Event Time Altitude Azimuth Distance (km) Brightness Sun altitude
Rises 16:11:47 0° 155° (SSE) 2,906 ? -22.3°
Reaches altitude 10° 16:13:58 10° 154° (SSE) 2,000 ? -22.1°
Maximum altitude 16:18:18 78° 69° (ENE) 646 ? -21.5°
Enters shadow 16:22:31 11° 344° (NNW) 1,941 ? -21.0°
